Preview of NWS' New Version of Forecast
This preview is not operational and should not be used for support decisions.

Regional Weather Roundup (RWR)

Issued by Little Rock, AR (LZK)

                            
000
ASUS44 KLZK 171905
RWRLZK

WEATHER ROUNDUP FOR ARKANSAS
NATIONAL WEATHER SERVICE LITTLE ROCK AR
100 PM CST MON DEC 17 2018

NOTE: "FAIR" INDICATES FEW OR NO CLOUDS BELOW 12,000 FEET WITH NO
SIGNIFICANT WEATHER AND/OR OBSTRUCTIONS TO VISIBILITY.

ARZ001-003-010-029-172000-
NORTHWEST ARKANSAS
  
CITY           SKY/WX    TMP DP  RH WIND       PRES   REMARKS
FAYETTEVILLE   SUNNY     56  34  43 E7        30.24F                  
FORT SMITH     CLOUDY    56  40  55 NE5       30.24F                  
HARRISON       SUNNY     56  28  34 SE3       30.24F                  
BENTONVILLE    SUNNY     56  29  35 E5        30.25F                  
ROGERS         SUNNY     55  31  39 SE5       30.24F                  
SILOAM SPGS    SUNNY     56  29  35 E6        30.24F                  
HIGHFILL       SUNNY     58  28  32 E6        30.24F                  
SPRINGDALE     SUNNY     55  34  44 E5        30.26F                  
$$

ARZ004-005-016-172000-
NORTH CENTRAL ARKANSAS
  
CITY           SKY/WX    TMP DP  RH WIND       PRES   REMARKS
BATESVILLE     SUNNY     56  36  47 CALM      30.25F                  
FLIPPIN        SUNNY     55  34  45 VRB3      30.25F                  
MTN HOME       SUNNY     54  34  46 W3        30.24F                  
$$

ARZ040-041-172000-
WEST CENTRAL ARKANSAS
  
CITY           SKY/WX    TMP DP  RH WIND       PRES   REMARKS
MENA           CLOUDY    59  45  58 E7        30.23F                  
MOUNT IDA      CLOUDY    54  40  59 E3        30.20F                  
$$

ARZ009-017-025-026-028-172000-
NORTHEAST ARKANSAS
  
CITY           SKY/WX    TMP DP  RH WIND       PRES   REMARKS
CORNING        FAIR      54  39  58 CALM      30.24F HAZE             
JONESBORO      FAIR      55  38  52 VRB5      30.24F                  
WALNUT RIDGE   FAIR      54  35  48 CALM      30.25F HAZE             
BLYTHEVILLE    FAIR      57  38  48 N6        30.24F                  
$$

ARZ022-023-033-042-044-172000-
CENTRAL ARKANSAS
  
CITY           SKY/WX    TMP DP  RH WIND       PRES   REMARKS
LITTLE ROCK    CLOUDY    59  32  36 NE7       30.24F                  
N LITTLE ROCK    N/A     58  38  48 CALM      30.27F                  
BENTON         CLEAR     59  34  38 VRB3      30.23F                  
CONWAY         CLEAR     55  43  62 NW5       30.24F                  
SEARCY         FAIR      58  38  47 VRB3      30.24F                  
HOT SPRINGS    CLOUDY    55  46  71 SW3       30.22F                  
RUSSELLVILLE   CLOUDY    54  41  61 S3        30.24F                  
CLINTON        FAIR      59  32  36 CALM      30.24F                  
$$

ARZ036-172000-
EAST ARKANSAS
  
CITY           SKY/WX    TMP DP  RH WIND       PRES   REMARKS
WEST MEMPHIS   FAIR      59  43  55 NW3       30.22F HAZE             
$$

ARZ050-053-066-070-073-172000-
SOUTHWEST ARKANSAS
  
CITY           SKY/WX    TMP DP  RH WIND       PRES   REMARKS
ARKADELPHIA    FAIR      52  51  97 CALM      30.24F                  
CAMDEN         CLOUDY    52  48  87 CALM      30.23F FOG              
TEXARKANA      CLOUDY    50  50 100 NE3       30.22F FOG              
EL DORADO      FAIR      58  54  86 NE3       30.22F                  
DE QUEEN       CLOUDY    54  52  93 CALM      30.21F                  
$$

ARZ056-057-069-172000-
SOUTHEAST ARKANSAS
  
CITY           SKY/WX    TMP DP  RH WIND       PRES   REMARKS
PINE BLUFF     FAIR      58  46  64 CALM      30.23F                  
STUTTGART      FAIR      57  42  57 VRB3      30.24F                  
MONTICELLO     FAIR      62  51  67 NE3       30.21F                  

$$